Temp
8 8 8 8 8 8 7 7 7 7 7 6 6 5 5 5 5 4 4 4 4 4 4 4 3 3 3 3 3 3 3 2 2 2 2 2 2 2 2 1 1 1 1 1 1 1 1 1 1 1 1 1 1 1 1 1 1 1 1 1 1 2 2 2 2 2 2 2 2
7 7 8 8 7 7 7 7 7 6 6 6 6 5 5 5 4 4 4 4 4 4 3 3 3 3 3 3 3 2 2 2 2 2 2 1 1 1 1 1 1 1 1 0 0 0 0 0 0 0 1 1 1 1 1 1 1 1 1 1 1 1 1 2 2 2 2 2 2
7 7 7 7 7 7 7 7 6 6 6 5 5 5 5 4 4 4 4 4 3 3 3 3 3 2 2 2 2 2 2 2 1 1 1 1 1 1 1 1 1 1 0 0 0 0 0 0 0 0 0 1 1 1 1 1 1 1 1 1 1 1 1 2 2 2 2 2 2
7 7 7 7 7 7 7 6 6 6 5 5 5 5 5 4 4 4 3 3 3 3 3 2 2 2 2 2 2 2 1 1 1 1 1 1 1 1 1 1 1 1 1 0 0 0 0 -0 -0 0 0 0 0 0 1 1 1 1 1 1 1 1 1 1 1 2 2 2 2
7 7 7 7 7 6 6 6 6 5 5 5 5 4 4 4 4 3 3 3 3 3 2 2 2 2 1 1 1 1 1 1 1 1 1 1 1 1 1 1 1 1 1 0 0 0 -0 -0 -0 0 0 0 0 0 0 0 1 1 1 1 1 1 1 1 1 2 2 2 2
7 7 7 6 6 6 6 6 6 5 5 5 5 4 4 4 3 3 3 3 2 2 2 2 2 1 1 1 1 1 1 1 1 1 1 1 1 1 1 1 1 0 0 0 0 0 -0 -0 -0 0 0 0 0 0 0 0 0 0 1 1 1 1 1 1 1 1 1 1 2
6 6 6 6 6 6 6 5 5 5 5 5 4 4 4 4 3 3 3 2 2 2 2 1 1 1 1 1 1 1 1 1 1 1 0 0 1 1 1 0 0 0 0 0 0 0 0 0 0 0 0 0 0 0 0 0 0 0 0 0 1 1 1 1 1 1 1 1 1
6 6 6 6 6 6 5 5 5 5 4 4 4 4 4 3 3 3 3 2 2 2 1 1 1 1 1 1 1 0 0 0 0 0 0 0 0 0 0 0 0 0 0 0 0 0 0 0 0 0 0 0 0 0 0 0 0 0 0 0 0 0 0 0 0 0 0 0 1
6 6 6 6 5 5 5 5 5 4 4 4 4 4 4 3 3 3 2 2 2 1 1 1 1 1 1 0 0 0 -0 -0 -0 -0 -0 -0 -0 -0 -0 -0 0 0 0 0 0 0 0 0 0 0 0 0 0 0 0 0 0 -0 -0 -0 -0 -0 -0 0 0 0 0 0 0
6 6 6 5 5 5 5 4 4 4 4 4 4 4 3 3 3 2 2 2 1 1 1 1 1 0 0 0 0 -0 -0 -0 -0 -0 -0 -0 -0 -0 -0 -0 -0 -0 -0 -0 -0 -0 -0 -0 -0 -0 -0 -0 0 -0 -0 -0 -0 -0 -0 -0 -0 -0 -0 -0 -0 -0 -0 -0 -0
6 6 5 5 5 4 4 4 4 4 4 4 4 3 3 3 2 2 2 1 1 1 1 1 0 0 0 -0 -0 -0 -0 -0 -0 -0 -0 -0 -0 -0 -0 -0 -0 -1 -1 -1 -1 -1 -0 -0 -0 -0 -1 -1 -0 -0 -0 -0 -1 -1 -1 -1 -1 -1 -1 -1 -1 -1 -1 -0 -0
5 5 5 5 4 4 4 4 4 4 4 3 3 3 3 2 2 2 1 1 1 1 0 0 0 -0 -0 -0 -0 -0 -0 -0 -0 -0 -0 -0 -0 -0 -1 -1 -1 -1 -1 -1 -1 -1 -1 -1 -1 -1 -1 -1 -1 -1 -1 -1 -1 -1 -1 -1 -1 -1 -1 -1 -1 -1 -1 -1 -1
5 5 5 5 4 4 4 4 4 4 3 3 3 3 2 2 2 1 1 1 0 0 0 0 -0 -0 -0 -0 -0 -0 -0 -0 -0 -0 -0 -0 -1 -1 -1 -1 -1 -1 -1 -1 -1 -1 -1 -1 -1 -1 -1 -1 -1 -1 -1 -1 -1 -1 -1 -1 -1 -1 -1 -1 -1 -1 -1 -1 -1
5 5 5 4 4 4 4 4 3 3 3 3 2 2 2 1 1 1 0 0 0 0 0 -0 -0 -0 -0 -0 -0 -0 -0 -0 -0 -0 -0 -1 -1 -1 -1 -1 -1 -1 -1 -1 -1 -1 -1 -1 -1 -1 -1 -1 -1 -1 -1 -1 -1 -1 -1 -1 -1 -1 -1 -1 -1 -1 -1 -1 -1
5 5 4 4 4 4 4 3 3 3 2 2 2 1 1 1 1 0 0 0 0 0 -0 -0 -0 0 -0 -0 0 0 -0 -0 -0 -0 -0 -0 -1 -1 -1 -1 -1 -1 -1 -1 -1 -1 -1 -1 -1 -1 -1 -1 -1 -1 -1 -1 -1 -1 -1 -1 -1 -1 -1 -1 -1 -1 -1 -1 -1
5 4 4 4 4 3 3 3 2 2 2 1 1 1 1 1 0 0 0 -0 -0 -0 -0 -0 -0 -0 -0 -0 -0 -0 -0 -0 -0 -0 -0 -0 -0 -0 -1 -1 -1 -1 -1 -1 -1 -1 -1 -1 -1 -1 -1 -1 -1 -1 -2 -2 -2 -2 -2 -2 -2 -2 -2 -2 -2 -1 -2 -2 -2
4 4 4 3 3 3 3 2 2 1 1 1 1 1 0 0 0 0 -0 -0 -0 -0 -0 -0 -0 -0 -0 -0 -0 -0 -0 -0 -0 -0 -0 -0 -0 -1 -1 -1 -1 -1 -1 -1 -1 -1 -1 -2 -2 -2 -2 -2 -2 -2 -2 -2 -2 -2 -2 -2 -2 -2 -2 -2 -2 -2 -2 -2 -2
4 4 3 3 3 3 2 2 1 1 1 1 0 0 0 -0 -0 -0 -0 -0 -0 -0 -1 -1 -1 -1 -0 -0 -0 -0 -0 -0 -0 -0 -1 -1 -1 -1 -1 -1 -2 -2 -2 -2 -2 -2 -2 -2 -2 -2 -2 -2 -2 -2 -2 -2 -2 -2 -2 -2 -2 -2 -2 -2 -2 -2 -2 -2 -2
3 3 3 3 2 2 2 1 1 1 0 0 0 -0 -0 -0 -0 -1 -1 -1 -1 -1 -1 -1 -1 -1 -0 -0 -0 -0 -1 -1 -1 -1 -1 -1 -1 -1 -2 -2 -2 -2 -2 -2 -2 -2 -2 -2 -2 -2 -2 -2 -2 -2 -2 -2 -2 -2 -2 -2 -2 -2 -2 -2 -2 -2 -2 -2 -2
3 3 3 2 2 2 1 1 1 0 0 0 -0 -0 -1 -1 -1 -1 -1 -1 -1 -1 -1 -1 -1 -1 -1 -1 -1 -1 -1 -1 -1 -1 -1 -1 -2 -2 -2 -2 -2 -2 -2 -2 -2 -2 -2 -2 -2 -2 -2 -2 -2 -2 -2 -2 -2 -2 -2 -2 -2 -2 -2 -2 -3 -3 -3 -3 -3
3 2 2 2 2 1 1 1 0 0 -0 -0 -0 -1 -1 -1 -1 -1 -1 -1 -1 -1 -1 -1 -1 -1 -1 -1 -1 -1 -1 -1 -1 -1 -1 -2 -2 -2 -2 -2 -2 -2 -2 -2 -2 -2 -2 -2 -2 -2 -2 -2 -2 -2 -2 -2 -2 -2 -2 -3 -3 -3 -3 -3 -3 -3 -3 -3 -3
2 2 2 1 1 1 1 0 0 -0 -0 -1 -1 -1 -1 -1 -1 -1 -1 -1 -1 -1 -1 -1 -1 -1 -1 -1 -1 -1 -1 -2 -2 -2 -2 -2 -2 -2 -2 -2 -2 -2 -2 -2 -2 -2 -2 -2 -2 -2 -3 -3 -3 -3 -3 -3 -3 -3 -3 -3 -3 -3 -3 -3 -3 -3 -3 -3 -2
2 2 2 1 1 1 0 0 -0 -0 -1 -1 -1 -1 -1 -1 -1 -1 -1 -1 -1 -1 -1 -1 -1 -1 -1 -1 -2 -2 -2 -2 -2 -2 -2 -2 -2 -2 -2 -2 -2 -2 -2 -2 -2 -3 -3 -3 -3 -3 -3 -3 -3 -3 -3 -3 -3 -3 -3 -3 -3 -3 -3 -2 -2 -2 -2 -2 -2
2 1 1 1 1 0 0 -0 -0 -1 -1 -1 -1 -1 -1 -1 -1 -1 -1 -1 -1 -1 -2 -2 -2 -2 -2 -2 -2 -2 -2 -2 -2 -2 -2 -2 -2 -2 -2 -2 -2 -2 -2 -2 -3 -3 -3 -3 -3 -3 -3 -3 -3 -3 -3 -3 -3 -3 -3 -3 -3 -3 -2 -2 -2 -2 -2 -2 -2
1 1 1 1 1 0 -0 -0 -1 -1 -1 -1 -1 -1 -1 -1 -1 -1 -1 -2 -2 -2 -2 -2 -2 -2 -2 -2 -2 -2 -2 -2 -2 -2 -2 -2 -2 -2 -2 -2 -2 -2 -2 -3 -3 -3 -3 -3 -3 -3 -3 -3 -3 -3 -3 -3 -3 -3 -3 -3 -3 -2 -2 -2 -2 -2 -2 -2 -2
1 1 1 1 0 0 -0 -1 -1 -1 -1 -1 -1 -2 -2 -2 -2 -2 -2 -2 -2 -2 -2 -2 -2 -2 -2 -2 -2 -2 -2 -2 -2 -2 -2 -2 -2 -2 -2 -3 -3 -3 -3 -3 -3 -3 -3 -3 -3 -3 -3 -3 -3 -3 -3 -3 -3 -3 -3 -3 -3 -3 -2 -2 -2 -2 -2 -2 -2
1 1 0 0 -0 -0 -1 -1 -1 -1 -1 -1 -2 -2 -2 -2 -2 -2 -2 -2 -2 -2 -2 -2 -2 -2 -2 -2 -2 -2 -2 -2 -2 -2 -2 -2 -3 -3 -3 -3 -3 -3 -3 -3 -3 -3 -3 -3 -3 -3 -3 -3 -3 -3 -3 -3 -3 -3 -3 -3 -3 -3 -2 -2 -2 -2 -2 -2 -2
0 0 0 -0 -0 -1 -1 -1 -1 -1 -1 -2 -2 -2 -2 -2 -2 -2 -2 -2 -2 -2 -2 -2 -2 -2 -2 -2 -2 -2 -2 -2 -2 -2 -3 -3 -3 -3 -3 -3 -3 -3 -3 -3 -3 -3 -3 -3 -3 -3 -3 -3 -3 -3 -3 -3 -3 -3 -3 -3 -3 -2 -2 -2 -2 -2 -2 -2 -2
0 -0 -0 -1 -1 -1 -1 -1 -1 -2 -2 -2 -2 -2 -2 -2 -2 -2 -2 -2 -2 -2 -2 -2 -2 -2 -2 -2 -2 -2 -2 -2 -3 -3 -3 -3 -3 -3 -3 -3 -3 -3 -3 -3 -3 -3 -3 -3 -3 -3 -3 -3 -3 -3 -3 -3 -3 -3 -3 -3 -2 -2 -2 -2 -2 -2 -2 -2 -2
-0 -0 -1 -1 -1 -1 -1 -1 -2 -2 -2 -2 -2 -2 -2 -2 -2 -2 -2 -2 -2 -2 -2 -2 -2 -2 -2 -2 -3 -3 -3 -3 -3 -3 -3 -3 -3 -3 -3 -3 -3 -3 -3 -3 -3 -3 -3 -3 -3 -3 -3 -3 -3 -3 -3 -3 -3 -3 -3 -3 -3 -2 -2 -2 -2 -2 -2 -2 -2
-0 -1 -1 -1 -2 -2 -2 -2 -2 -2 -2 -2 -2 -3 -3 -3 -3 -3 -3 -3 -3 -3 -3 -3 -3 -3 -3 -3 -3 -3 -3 -3 -3 -3 -3 -3 -3 -3 -4 -4 -4 -4 -4 -4 -4 -3 -3 -3 -3 -3 -3 -3 -3 -3 -3 -3 -3 -3 -3 -3 -3 -3 -2 -2 -2 -2 -2 -2 -2
-1 -1 -2 -2 -2 -2 -2 -2 -2 -2 -2 -3 -3 -3 -3 -3 -3 -3 -3 -3 -3 -3 -3 -3 -3 -3 -3 -3 -3 -3 -3 -3 -3 -3 -4 -4 -4 -4 -4 -4 -4 -4 -4 -4 -4 -4 -4 -4 -4 -3 -3 -3 -3 -3 -3 -3 -3 -3 -3 -3 -3 -3 -3 -2 -2 -2 -2 -2 -2
-1 -2 -2 -2 -2 -2 -2 -2 -3 -3 -3 -3 -3 -3 -3 -3 -3 -3 -3 -3 -3 -3 -3 -3 -3 -3 -3 -3 -3 -3 -3 -4 -4 -4 -4 -4 -4 -4 -4 -4 -4 -4 -4 -4 -4 -4 -4 -4 -4 -3 -3 -3 -3 -3 -3 -3 -3 -3 -3 -3 -3 -3 -3 -3 -2 -2 -2 -2 -2
-2 -2 -3 -3 -3 -3 -3 -3 -3 -3 -3 -3 -3 -3 -3 -3 -4 -4 -3 -3 -3 -4 -4 -4 -4 -4 -4 -4 -4 -4 -4 -4 -4 -4 -4 -4 -4 -4 -4 -5 -5 -5 -5 -5 -4 -4 -4 -4 -4 -3 -3 -3 -3 -3 -3 -3 -3 -3 -3 -3 -3 -3 -3 -3 -2 -2 -2 -2 -2
-2 -3 -3 -3 -3 -3 -3 -3 -3 -3 -3 -3 -3 -3 -3 -3 -4 -4 -4 -4 -4 -4 -4 -4 -4 -4 -4 -4 -4 -4 -4 -4 -4 -4 -4 -5 -5 -5 -5 -5 -5 -5 -5 -5 -4 -4 -4 -4 -4 -3 -3 -3 -3 -3 -3 -3 -3 -3 -3 -3 -3 -2 -2 -2 -2 -2 -2 -2 -2
-3 -3 -3 -3 -3 -3 -3 -3 -3 -3 -3 -3 -3 -3 -4 -4 -4 -4 -4 -4 -4 -4 -4 -4 -4 -4 -4 -4 -4 -4 -4 -4 -5 -5 -5 -5 -5 -5 -5 -5 -5 -5 -5 -5 -5 -4 -4 -4 -4 -3 -3 -3 -3 -3 -3 -3 -3 -3 -3 -2 -2 -2 -2 -2 -2 -2 -2 -2 -2
-3 -4 -4 -4 -4 -4 -4 -4 -4 -4 -4 -4 -4 -4 -4 -4 -4 -5 -5 -5 -5 -5 -4 -4 -4 -4 -5 -5 -5 -5 -5 -5 -5 -5 -5 -5 -6 -6 -5 -5 -5 -5 -5 -5 -5 -4 -4 -4 -4 -3 -3 -3 -3 -3 -3 -3 -3 -3 -3 -2 -2 -2 -2 -2 -2 -2 -2 -2 -2
-3 -4 -4 -4 -4 -4 -4 -4 -4 -4 -4 -4 -4 -4 -4 -5 -5 -5 -5 -5 -5 -5 -5 -5 -5 -5 -5 -5 -5 -5 -5 -5 -5 -5 -5 -6 -6 -6 -5 -5 -5 -5 -5 -5 -5 -4 -4 -4 -4 -3 -3 -3 -3 -3 -3 -3 -3 -3 -3 -2 -2 -2 -2 -2 -2 -2 -2 -2 -2
-4 -4 -4 -4 -4 -4 -4 -4 -4 -4 -4 -4 -5 -5 -5 -5 -5 -5 -5 -5 -5 -5 -5 -5 -5 -5 -5 -5 -5 -5 -5 -5 -5 -5 -6 -6 -6 -6 -5 -5 -5 -5 -5 -5 -4 -4 -4 -4 -4 -3 -3 -3 -3 -3 -3 -3 -3 -3 -2 -2 -2 -2 -2 -2 -1 -1 -1 -1 -1
-4 -4 -4 -4 -4 -4 -4 -4 -5 -5 -5 -5 -5 -5 -5 -5 -5 -5 -5 -5 -5 -5 -5 -5 -6 -6 -6 -6 -6 -6 -6 -6 -6 -6 -6 -6 -6 -5 -5 -5 -5 -5 -5 -5 -4 -4 -4 -4 -4 -3 -3 -3 -3 -3 -3 -3 -3 -2 -2 -2 -2 -1 -1 -1 -1 -1 -1 -1 -1
-4 -4 -4 -5 -5 -5 -5 -5 -5 -5 -5 -5 -5 -5 -5 -5 -5 -5 -5 -5 -6 -6 -6 -6 -6 -6 -6 -6 -6 -6 -6 -6 -6 -6 -5 -5 -5 -5 -5 -5 -5 -5 -5 -5 -4 -4 -4 -4 -4 -3 -3 -3 -3 -3 -3 -3 -2 -2 -2 -2 -1 -1 -1 -1 -1 -1 -1 -1 -1
Height
822 822 823 823 824 824 824 824 824 824 824 824 824 824 824 824 824 823 823 822 822 821 820 820 819 819 818 818 817 817 816 815 815 814 813 813 812 811 810 810 809 809 808 807 806 806 805 804 803 802 801 800 799 797 796 796 795 794 793 792 791 790 789 788 787 786 785 784 783
820 821 821 822 822 823 823 823 823 823 823 823 823 823 823 822 822 821 821 821 820 820 819 818 817 817 816 816 815 815 815 814 813 812 811 811 810 809 808 808 807 806 805 805 804 804 803 802 801 800 799 798 796 795 794 793 793 792 791 790 789 788 786 785 784 783 782 781 780
819 820 820 821 821 821 821 822 822 822 822 821 821 821 821 821 820 820 820 819 818 818 817 816 816 815 815 814 814 813 813 812 811 810 810 809 808 807 807 806 805 804 804 803 802 801 800 800 799 798 797 795 794 793 792 791 791 790 789 787 786 785 784 782 781 780 779 778 777
818 818 819 819 820 820 820 820 820 820 820 820 820 820 820 819 819 818 818 817 816 816 815 815 814 814 813 812 812 811 811 810 810 809 808 807 806 805 805 804 803 803 802 801 800 799 798 798 797 795 794 793 792 790 790 789 788 787 786 785 784 783 781 780 779 778 777 775 774
816 817 818 818 819 819 819 819 819 819 819 819 819 818 818 817 817 816 816 815 815 814 814 813 812 812 811 810 810 809 809 808 808 807 806 805 804 803 803 802 801 800 800 799 798 797 796 795 794 793 792 790 789 788 787 786 785 785 783 782 781 780 779 777 776 775 774 773 771
815 816 816 817 817 817 818 818 818 818 818 817 817 817 816 816 815 815 814 814 813 813 812 811 811 810 809 809 808 808 807 806 806 805 804 803 802 801 800 800 799 798 797 796 795 795 794 793 792 790 789 788 786 785 784 784 783 782 780 779 778 777 776 775 773 772 771 770 769
814 815 815 815 816 816 816 816 816 816 816 816 815 815 815 814 814 813 813 812 811 811 810 810 809 808 808 807 806 806 805 804 804 803 802 801 800 799 798 797 796 796 795 794 794 793 792 791 790 788 786 785 784 782 781 781 780 779 778 776 775 774 773 772 770 770 769 767 766
813 814 814 814 815 815 815 815 815 815 815 814 814 813 813 813 812 811 811 810 810 809 808 808 807 806 806 805 805 804 803 802 801 800 800 799 797 796 796 795 794 793 793 792 791 790 790 789 787 786 784 783 782 780 779 779 778 776 775 774 772 771 770 769 768 767 766 765 763
812 812 813 813 813 813 813 813 813 813 813 812 812 812 811 811 810 810 809 809 808 807 806 806 805 805 804 803 803 802 801 800 799 798 797 796 795 794 793 792 792 791 790 789 789 788 787 786 785 783 782 781 779 777 776 776 775 774 772 771 770 768 767 766 765 765 763 762 761
811 811 811 812 812 812 812 812 812 811 811 811 810 810 809 809 808 808 807 807 806 805 805 804 803 803 802 801 800 800 799 798 797 795 795 794 793 792 791 790 789 788 787 786 786 785 784 783 782 780 779 778 777 775 774 773 772 771 769 768 767 765 764 763 763 762 760 759 758
810 810 810 810 810 810 810 810 810 810 809 809 808 808 807 807 806 806 805 805 804 803 802 802 801 801 800 799 798 797 797 796 795 793 792 791 790 789 788 787 786 785 784 784 783 782 781 780 779 777 776 775 774 772 771 770 769 768 766 765 764 762 761 760 760 759 758 756 755
808 808 809 809 809 809 809 809 808 808 808 807 806 806 805 805 805 804 803 803 802 801 800 800 800 799 798 797 796 795 795 794 793 791 790 789 788 787 786 785 784 783 782 781 780 780 779 777 776 775 773 772 771 770 768 767 766 765 763 761 761 760 758 756 756 755 755 753 752
807 807 807 807 807 807 807 807 806 806 806 805 805 804 804 803 802 802 801 801 800 799 799 798 798 797 796 795 794 794 793 791 790 789 788 787 785 784 783 782 781 780 779 779 778 777 776 774 773 772 770 769 768 767 765 764 763 762 760 759 757 756 755 753 753 752 751 750 749
805 805 806 806 806 805 805 805 805 804 804 803 803 802 802 801 801 800 800 799 798 798 797 796 796 795 794 793 793 792 791 790 788 787 785 784 783 782 780 780 779 778 777 776 775 775 773 772 770 769 768 766 764 763 762 761 760 759 757 756 754 753 751 750 750 749 748 747 745
804 804 804 804 804 804 804 803 803 803 802 802 801 801 800 800 799 798 798 797 797 796 795 795 794 793 792 792 791 790 789 787 786 785 783 782 780 780 778 777 776 775 775 773 772 771 770 769 768 766 765 763 761 760 759 758 757 755 754 753 751 750 748 747 746 746 745 744 742
802 802 803 803 803 802 802 802 801 801 801 800 800 799 799 798 797 797 796 795 795 794 794 793 792 791 790 790 789 788 786 785 784 783 781 780 778 777 776 775 774 773 772 771 770 768 767 766 765 763 762 760 758 757 756 755 754 752 751 749 748 747 745 744 743 742 741 740 740
801 801 801 801 801 801 801 800 800 800 799 799 798 798 797 796 796 795 795 794 793 792 791 791 790 789 788 787 786 786 785 783 781 780 779 777 776 775 774 772 771 770 769 768 767 765 764 763 762 760 759 757 756 754 753 751 750 749 747 746 745 743 742 741 740 739 738 737 736
799 800 800 800 800 799 799 799 798 798 797 797 796 796 795 795 794 793 793 792 791 790 789 788 788 787 786 785 784 783 782 781 779 778 776 775 774 772 771 770 768 767 766 765 764 762 761 760 759 757 756 755 753 751 750 748 747 745 744 743 741 740 739 738 737 736 735 734 733
798 798 798 798 798 798 797 797 797 796 796 795 795 794 793 793 792 791 790 790 789 788 787 786 785 785 784 783 782 781 780 779 777 775 774 773 771 770 768 767 766 765 764 762 761 760 758 757 755 754 753 751 750 748 747 745 744 742 741 740 738 737 736 735 734 733 732 731 730
796 796 796 796 796 796 796 795 795 795 794 793 793 792 791 791 790 789 789 788 787 786 786 785 784 783 781 780 780 778 777 776 775 773 771 770 769 767 766 765 763 762 761 760 758 757 755 754 753 751 750 749 747 745 743 742 740 739 738 736 735 734 733 732 731 730 729 728 726
795 795 795 795 795 794 794 793 793 793 792 791 791 790 790 789 788 788 787 786 785 785 784 783 782 780 779 778 777 776 774 773 772 770 769 767 766 765 763 762 760 759 758 757 755 754 752 751 750 749 747 745 744 742 740 739 737 736 735 733 732 730 729 728 727 726 725 724 723
793 793 793 793 793 792 792 792 791 791 790 790 789 789 788 787 786 786 785 784 784 783 782 781 780 779 777 776 775 773 772 770 769 768 766 765 763 762 760 760 758 756 755 754 752 751 750 748 747 746 745 743 741 739 738 736 735 733 731 730 728 727 726 725 723 722 721 720 719
792 791 791 791 791 790 790 790 790 789 789 788 788 787 786 785 785 784 783 782 782 781 780 779 778 776 775 774 772 771 769 768 766 765 764 762 760 759 758 757 755 754 752 751 749 748 747 745 744 743 742 740 738 736 735 733 731 730 728 726 725 723 722 721 720 718 717 716 715
790 790 790 789 789 789 789 788 788 787 787 786 786 785 785 784 783 782 781 781 780 779 778 777 775 774 773 771 770 769 767 765 764 762 760 760 758 757 755 754 753 751 750 748 747 745 745 743 742 740 739 737 735 733 731 730 729 727 725 724 722 720 718 717 716 715 714 712 711
788 788 788 788 787 787 787 787 786 786 785 785 784 783 783 782 781 781 780 779 778 777 776 775 773 772 770 769 767 766 765 763 761 760 758 756 755 754 753 751 750 748 747 745 744 743 742 741 740 738 736 735 733 731 729 727 725 724 723 721 719 717 715 713 711 710 710 708 707
786 786 786 786 786 786 785 785 785 784 784 783 782 782 781 780 780 779 778 777 776 775 774 772 771 769 768 766 765 764 762 761 759 758 756 754 752 751 750 749 747 745 744 742 741 740 739 738 737 736 735 733 730 728 726 724 722 721 720 718 716 714 712 709 707 706 705 704 703
785 785 785 785 785 784 784 784 783 783 782 781 781 780 780 779 778 777 776 775 774 772 771 770 769 767 766 764 763 761 760 758 757 755 754 752 750 748 747 746 744 743 741 739 738 737 736 735 734 733 732 730 728 726 724 721 720 718 716 715 713 711 709 706 704 702 701 700 699
783 783 783 783 783 783 782 782 781 781 780 780 779 779 778 777 776 775 774 773 772 770 769 768 766 765 764 762 760 759 757 756 755 753 751 749 748 746 744 743 741 740 738 737 735 735 733 732 731 730 729 728 726 724 721 719 717 715 713 711 709 707 705 703 701 699 698 696 695
782 782 782 781 781 781 780 780 780 779 779 778 778 777 776 775 774 773 772 771 770 768 767 765 764 763 761 760 758 756 755 753 752 750 749 747 745 743 742 740 738 737 735 734 733 732 730 729 728 727 726 725 723 721 719 716 714 712 710 708 706 704 702 700 699 697 695 693 691
780 780 780 780 780 779 779 779 778 778 777 777 776 775 774 773 772 771 770 769 767 766 765 764 762 760 759 757 755 754 752 750 749 748 746 744 742 740 739 737 736 734 732 731 730 729 728 726 725 724 723 722 720 719 716 714 711 709 707 705 703 701 699 697 695 694 692 690 688
779 779 779 778 778 778 777 777 777 776 776 775 774 773 772 771 770 769 768 766 765 764 762 761 760 758 756 755 753 752 750 748 746 745 744 742 740 738 736 735 733 731 730 728 727 726 725 724 722 721 720 719 718 716 713 711 709 706 704 702 700 698 696 694 692 690 688 687 685
777 777 777 777 776 776 776 775 775 775 774 773 772 771 770 769 768 766 765 764 763 761 760 758 757 755 754 752 751 749 747 746 744 743 741 740 738 735 734 732 730 729 727 726 725 723 722 721 719 718 717 716 714 712 710 708 705 703 701 699 696 695 693 691 689 687 685 683 681
776 775 775 775 775 775 774 774 773 773 772 771 770 769 768 766 765 764 763 762 761 759 758 756 755 753 751 750 748 746 745 743 742 740 739 737 735 734 731 730 728 726 725 723 722 720 719 718 716 715 714 712 711 709 707 705 702 700 697 695 693 691 690 688 685 683 681 679 677
774 774 774 774 773 773 772 772 771 770 770 769 768 766 765 764 763 761 760 760 759 757 755 754 753 751 749 748 746 744 742 741 740 738 736 735 733 731 730 727 725 723 722 721 719 718 716 715 714 712 711 710 708 706 704 701 699 697 694 692 690 688 686 684 681 679 677 675 673
773 773 772 772 772 771 770 770 769 769 768 766 765 764 763 762 761 760 758 757 756 755 753 752 750 749 747 745 744 742 740 739 737 735 734 733 731 729 727 725 723 721 720 718 717 715 714 712 711 709 708 707 705 702 700 698 696 693 691 688 686 684 682 680 677 675 673 671 669
771 771 771 770 770 769 769 768 767 766 765 764 763 762 761 760 759 758 756 755 754 752 751 749 748 746 745 743 742 740 739 737 735 733 732 730 729 727 725 722 720 718 717 715 714 713 711 710 708 706 705 704 702 700 697 695 692 690 687 685 682 680 677 675 673 671 669 667 664
770 770 769 768 768 767 767 766 765 764 763 762 761 760 759 758 756 755 754 753 752 750 748 747 746 744 743 741 740 738 736 735 733 731 729 728 727 725 722 720 717 715 714 713 711 710 708 707 705 704 703 701 699 696 694 692 689 687 684 681 679 676 674 671 669 666 664 662 660
768 768 767 767 766 765 765 764 763 762 761 760 759 758 757 756 754 753 752 751 750 748 746 745 744 742 740 739 737 735 734 733 731 730 727 725 724 723 720 718 715 713 711 710 708 707 705 704 702 701 700 698 696 694 691 689 686 684 681 678 675 672 670 667 665 662 660 657 655
766 766 766 765 764 764 763 762 761 760 759 758 757 756 755 754 753 751 750 750 748 747 745 743 741 740 739 737 735 733 731 730 729 728 725 723 722 720 719 716 713 710 708 707 706 704 703 701 700 698 697 696 694 691 689 686 683 680 677 675 671 668 665 663 661 658 655 652 650
765 764 764 763 763 762 761 760 760 759 758 756 755 754 753 752 751 750 749 748 746 745 743 741 739 738 737 735 733 731 729 727 726 725 724 721 720 718 716 714 711 708 706 704 703 701 700 698 696 695 694 693 690 688 686 683 680 677 674 671 668 665 662 659 657 654 651 648 645
763 763 762 762 761 760 760 759 758 757 756 755 754 752 751 750 749 748 747 746 745 743 742 740 737 736 735 733 731 729 727 724 723 722 721 719 717 715 714 712 709 706 704 702 700 698 697 695 694 692 691 690 688 685 683 681 678 674 671 668 665 662 659 655 653 650 647 644 641
Wind_Speed
17 15 13 12 10 9 8 8 8 8 9 9 10 11 11 12 12 13 13 13 13 14 15 15 15 16 17 18 18 19 19 20 20 21 21 21 21 21 21 21 21 21 21 21 21 20 20 19 19 18 18 18 18 19 19 19 20 21 21 22 22 23 23 24 24 25 25 25 25
16 14 13 11 9 8 7 8 8 9 10 11 11 12 12 13 13 14 14 13 14 14 15 16 17 18 18 19 19 19 20 20 20 20 20 20 20 21 21 21 21 21 21 21 21 20 20 19 18 18 18 19 19 19 20 21 21 21 22 23 23 23 23 24 24 25 25 25 26
15 13 11 10 8 8 8 8 9 10 10 12 12 13 14 14 15 15 15 15 15 15 16 17 17 18 18 19 19 19 19 19 20 20 20 20 20 20 20 20 20 20 20 20 20 20 20 19 19 19 19 20 20 21 21 21 21 22 23 24 23 23 23 23 23 23 23 24 24
14 12 11 9 8 8 8 9 9 10 11 12 13 14 15 15 15 15 16 16 16 16 16 16 17 18 19 19 20 20 19 19 19 20 20 20 20 20 20 20 20 20 20 20 21 21 21 20 20 20 20 20 21 21 22 22 22 22 23 24 23 23 23 24 23 23 23 24 24
13 11 10 9 8 8 9 10 10 11 12 13 14 15 15 15 15 15 16 16 16 16 17 17 18 19 20 20 20 20 20 20 19 19 20 20 20 20 20 20 20 20 21 21 21 21 21 21 20 21 21 21 21 22 22 22 22 23 24 24 24 24 24 25 25 24 24 25 25
12 10 9 9 8 9 10 11 11 12 13 14 15 15 15 15 15 15 15 15 16 17 18 18 19 19 19 19 19 19 19 19 19 19 19 20 20 20 20 20 21 21 21 21 21 21 21 20 20 21 22 22 22 22 23 23 23 24 24 25 25 24 24 25 25 25 25 26 26
11 10 9 9 9 10 11 12 12 13 14 15 15 16 16 16 16 16 17 17 17 18 18 18 18 18 18 19 19 19 19 19 19 19 19 20 20 20 20 21 21 21 21 21 21 21 21 20 20 21 22 22 22 22 23 22 23 24 25 25 25 25 25 26 26 26 26 27 28
10 9 9 9 10 11 12 12 13 14 14 15 16 16 16 17 17 17 18 18 18 18 18 18 18 18 18 19 19 20 20 20 20 20 20 20 20 21 21 21 21 21 22 22 22 22 22 21 21 22 22 23 22 23 23 23 24 25 26 27 27 27 27 27 27 27 28 29 30
10 10 10 10 11 11 12 12 13 14 15 15 16 17 17 17 18 18 18 18 18 18 18 17 18 18 18 19 19 20 21 21 21 21 21 21 21 21 22 22 22 22 22 22 22 22 22 22 22 23 23 23 24 25 25 25 26 27 28 29 29 29 29 29 29 29 30 30 31
10 10 10 11 11 12 12 13 14 14 15 16 17 17 18 18 18 18 17 17 18 18 18 17 18 18 18 19 20 20 20 21 21 21 21 21 22 22 22 22 23 23 23 23 23 23 23 24 23 24 25 25 27 27 28 28 28 29 30 29 30 31 31 31 31 31 32 32 33
11 11 11 11 12 12 13 13 14 15 16 16 17 17 18 18 17 17 17 18 18 18 19 19 18 19 19 20 20 20 20 20 20 21 21 22 22 23 23 23 23 24 24 24 24 24 24 24 24 25 26 26 27 28 29 29 29 30 31 31 31 32 33 33 32 32 32 33 33
11 11 11 11 12 12 13 14 15 15 16 17 17 18 17 17 17 17 17 18 18 19 19 18 18 18 19 20 19 19 19 20 20 21 21 22 23 23 23 24 24 25 25 25 24 24 24 25 26 27 28 29 28 28 29 30 30 31 32 32 33 33 34 34 34 33 32 33 33
11 11 11 12 12 12 13 14 15 16 16 17 17 17 17 17 17 17 17 17 17 18 18 18 18 18 18 19 19 19 20 21 21 22 23 23 24 24 24 24 25 25 26 26 25 24 25 26 27 28 29 30 30 30 30 30 31 32 32 33 33 34 34 34 34 34 34 34 34
11 11 11 12 12 13 13 14 15 16 16 16 17 17 16 16 16 16 16 16 17 17 17 17 17 17 18 18 19 20 21 22 22 23 24 24 24 25 25 26 26 26 25 26 26 26 27 28 28 29 30 31 32 32 32 32 32 32 33 33 34 34 35 35 35 34 34 35 35
11 11 12 12 12 13 14 15 15 15 15 15 15 15 15 15 16 16 16 16 16 16 17 17 17 17 18 19 20 22 22 22 23 24 25 25 25 25 25 26 27 27 26 27 27 27 28 29 29 30 31 32 32 32 32 32 33 33 33 34 35 35 35 35 35 35 35 35 35
11 11 12 12 12 13 14 14 14 14 14 14 15 15 15 15 15 15 16 16 16 16 16 17 18 18 19 20 21 22 23 23 23 24 26 27 27 27 26 26 27 27 28 28 29 29 29 29 29 30 31 32 32 33 33 33 33 34 34 34 35 35 35 36 35 35 35 35 35
12 12 12 12 13 13 14 14 14 14 14 14 15 15 15 15 15 15 15 16 16 17 17 18 19 20 21 22 22 23 23 24 25 26 27 28 28 28 28 28 28 28 29 29 29 30 30 30 30 30 31 32 32 33 33 33 34 34 34 34 35 35 35 36 35 35 35 35 35
11 11 12 12 13 13 13 14 14 14 15 15 16 16 16 16 16 16 17 17 18 19 20 20 20 21 22 23 24 24 24 25 26 27 27 28 28 29 29 29 29 29 29 29 30 30 31 31 31 31 31 32 32 33 33 33 34 34 34 35 35 35 35 35 35 35 35 35 35
11 11 12 12 12 13 13 14 14 15 15 16 16 17 17 17 17 18 18 19 19 20 20 21 22 22 23 24 25 25 25 26 27 28 28 28 28 28 29 29 29 29 30 30 30 31 31 31 32 32 32 32 33 33 33 34 34 34 34 34 35 35 35 35 35 34 35 35 35
11 11 11 12 12 13 13 14 14 15 15 16 16 17 17 17 18 18 19 20 20 20 21 22 23 24 24 25 26 26 26 26 27 28 28 28 28 29 29 29 30 30 30 30 31 31 31 31 32 32 32 32 33 33 34 34 34 34 34 34 34 34 34 34 34 34 34 34 35
10 11 11 11 12 13 13 14 15 15 16 16 16 17 17 17 18 18 20 21 21 21 22 23 24 25 25 26 26 27 27 27 27 28 28 29 29 29 29 29 30 30 30 30 31 31 31 31 31 32 32 32 32 33 33 33 33 34 34 33 33 34 34 34 35 35 35 35 35
10 11 11 12 12 13 14 14 15 15 16 16 16 17 17 18 19 20 21 21 21 22 22 23 24 25 25 26 26 27 27 27 27 28 28 29 29 29 29 29 29 30 30 31 31 31 31 31 31 31 31 31 32 32 32 32 32 33 33 33 33 34 34 34 34 34 34 35 36
10 11 11 12 13 13 14 15 15 15 16 16 17 17 18 19 20 21 21 21 22 22 23 24 24 25 25 26 26 27 28 28 28 28 28 28 29 29 29 29 29 30 30 30 30 30 30 30 29 29 29 30 31 32 32 32 32 32 32 32 33 34 34 34 34 33 33 34 35
10 11 11 12 13 14 14 15 15 16 16 16 17 18 19 20 21 21 21 22 22 23 24 24 24 25 25 26 26 27 27 28 29 29 28 28 28 28 29 29 28 29 29 29 28 28 28 28 28 28 29 29 30 30 31 32 31 32 33 33 33 34 34 35 35 34 34 34 35
10 11 12 12 13 14 14 15 15 15 16 17 18 19 19 20 21 21 22 22 23 23 24 24 25 25 25 26 26 26 26 27 28 28 28 29 29 29 28 28 29 29 28 28 28 28 29 29 29 29 30 30 31 32 32 33 33 34 34 34 34 35 35 36 36 36 35 35 35
10 11 12 13 13 14 14 14 15 16 17 17 18 19 19 20 21 21 22 23 23 24 24 24 25 25 25 25 25 26 26 26 27 27 28 28 30 30 29 28 28 28 28 28 29 29 30 31 31 31 31 32 33 33 34 34 34 34 34 35 35 36 36 37 37 37 36 35 35
11 11 12 13 13 14 14 15 15 16 17 18 18 19 19 20 21 21 22 23 23 24 24 24 24 24 24 25 25 25 26 26 26 27 28 28 29 30 30 29 28 28 28 29 30 30 31 32 32 32 32 32 33 34 34 34 34 34 34 34 34 35 35 36 36 36 36 36 35
11 11 12 13 13 14 14 15 15 16 17 18 18 19 19 20 21 21 22 23 23 24 24 24 23 23 23 24 24 25 26 27 27 28 28 28 29 29 30 30 29 29 29 30 31 32 32 33 33 33 33 33 34 34 34 34 34 34 34 34 34 34 34 35 35 35 35 35 35
11 12 12 13 14 14 15 15 15 16 17 17 18 19 19 20 21 22 22 23 23 23 23 23 23 23 23 24 25 26 27 27 27 27 27 28 28 29 29 30 30 30 31 31 32 32 33 33 33 34 34 34 34 33 32 32 33 34 34 34 33 34 34 35 35 35 35 36 36
11 12 12 13 14 14 14 15 15 16 17 18 18 19 20 20 21 22 22 23 23 23 23 23 23 24 24 25 26 26 27 27 27 27 27 28 28 29 29 29 29 30 31 31 32 33 33 33 34 34 34 34 34 33 33 33 34 34 33 33 34 35 35 36 36 37 38 37 37
11 12 12 13 14 14 14 15 16 16 17 18 18 19 20 21 21 22 22 22 23 23 23 24 24 25 26 26 26 26 26 27 27 26 27 28 29 29 29 30 30 31 31 32 32 33 33 33 34 34 35 35 35 34 33 33 34 34 34 34 35 35 35 36 36 37 37 37 37
11 11 12 13 13 14 14 15 16 16 17 18 19 20 20 21 21 22 22 22 22 23 23 23 23 24 25 26 26 26 26 26 27 27 26 26 27 29 30 30 31 31 31 32 32 33 33 34 34 35 35 36 35 35 35 35 35 35 35 35 35 35 35 35 35 35 37 37 37
11 11 12 12 13 14 14 15 16 17 17 18 19 20 20 21 21 22 22 22 21 22 22 23 23 24 25 26 26 26 26 26 26 26 26 27 28 29 30 31 31 31 31 32 32 33 34 35 35 36 36 36 36 35 35 35 34 34 34 34 34 35 35 35 36 36 37 38 38
11 11 11 12 13 14 15 15 16 17 18 19 19 20 20 21 21 21 22 22 21 21 22 23 23 23 24 25 25 26 26 26 26 26 27 28 28 29 30 31 31 31 32 32 33 34 35 35 36 36 36 36 36 35 35 34 34 33 34 34 35 35 36 36 37 38 38 39 38
11 11 12 12 13 14 15 16 17 17 18 19 20 20 20 20 20 21 21 21 22 22 22 23 24 24 23 24 24 25 26 27 27 27 28 28 29 30 31 31 32 32 33 34 34 35 35 36 36 36 36 36 35 34 33 33 33 33 33 34 34 35 36 36 37 37 38 38 38
11 11 12 13 14 15 15 16 17 18 18 19 20 20 20 20 20 21 21 21 22 22 23 23 23 24 24 24 24 25 25 26 28 28 29 29 29 30 31 32 33 34 34 34 34 35 35 35 36 36 35 35 34 32 31 31 31 31 32 33 34 35 35 36 36 37 37 37 37
10 11 12 13 14 15 16 17 17 18 19 19 20 20 20 20 20 20 20 20 20 22 23 23 23 23 24 24 25 26 26 26 27 28 29 29 29 30 31 32 33 34 35 34 34 35 35 35 35 35 35 34 32 31 31 30 30 30 31 32 34 34 35 35 36 36 36 36 37
11 11 12 14 15 16 16 17 17 18 19 19 19 20 20 19 20 20 20 19 19 21 22 23 23 23 24 24 25 26 27 27 27 28 29 30 30 30 31 32 34 34 35 35 35 35 35 35 36 35 34 33 32 31 31 30 30 30 31 32 33 34 34 34 34 34 35 36 37
11 12 12 14 15 16 16 17 17 18 18 19 19 20 19 19 19 19 19 19 19 20 21 23 24 24 24 25 26 27 28 28 28 28 29 29 30 30 31 32 33 34 35 35 35 35 36 36 36 35 35 33 32 31 30 29 29 30 31 32 32 34 34 34 33 33 33 35 38
12 12 13 14 15 16 16 17 17 17 18 18 19 19 19 19 19 19 19 18 19 20 21 23 24 25 25 25 26 27 29 29 28 28 29 29 30 31 31 32 33 34 35 35 35 36 36 36 36 35 34 33 31 30 29 28 28 29 31 31 31 32 33 33 32 32 32 33 36
12 13 13 14 14 15 16 17 17 17 17 17 18 18 19 19 19 19 19 18 19 20 21 22 24 25 25 26 26 27 29 30 30 29 29 30 30 30 30 31 31 33 34 35 35 35 35 35 35 35 34 32 31 30 29 28 28 30 31 32 32 31 32 33 33 33 33 33 33
Wind_Direction
213 215 217 219 223 230 242 254 265 274 278 281 281 282 284 285 285 285 285 286 286 286 288 288 289 290 292 292 292 291 291 290 290 289 289 288 287 287 286 286 284 283 283 283 282 281 280 280 279 278 277 276 275 275 274 272 272 273 273 272 272 273 273 272 271 270 269 267 266
212 213 215 217 223 233 246 259 269 275 280 281 282 282 282 283 284 285 285 284 283 285 286 287 288 289 290 291 290 289 288 288 287 287 286 285 284 283 283 283 282 281 281 281 280 279 279 279 279 278 278 277 277 276 275 274 274 273 272 272 272 272 273 272 270 269 268 267 266
210 212 214 218 226 238 250 260 268 274 277 278 281 282 282 281 282 283 283 283 285 285 285 285 287 288 288 289 288 286 285 285 284 284 283 282 282 281 280 280 279 279 278 278 278 278 278 278 279 279 279 278 278 277 276 276 275 274 273 273 273 273 272 271 270 269 269 268 266
209 211 214 221 231 242 252 261 268 271 273 276 279 281 282 281 282 283 284 286 286 285 284 284 285 286 286 286 286 285 284 282 282 281 280 280 280 280 279 278 278 278 277 277 277 277 278 278 278 279 278 277 276 275 274 275 274 273 273 273 273 272 271 271 270 270 269 268 267
208 211 215 224 235 246 254 262 266 268 270 274 278 280 281 282 283 284 286 286 286 286 286 286 285 285 285 285 285 285 284 282 280 279 278 278 279 279 280 279 278 278 279 279 278 279 279 278 278 278 278 276 275 273 273 274 273 272 272 273 272 271 271 271 270 270 269 269 268
208 212 219 228 239 249 256 261 265 267 270 273 277 279 280 281 282 283 283 283 284 286 286 285 284 284 284 284 283 282 281 280 279 278 278 278 279 279 280 279 279 279 280 280 280 280 280 279 278 278 278 277 275 273 272 272 271 271 271 271 271 270 269 269 270 270 270 269 268
209 216 224 234 243 251 257 262 265 268 271 274 278 280 281 282 283 283 283 284 285 285 285 284 283 282 282 282 281 280 279 279 279 279 279 279 280 280 280 280 280 280 280 281 282 282 281 280 278 278 278 277 275 274 272 271 270 270 270 270 270 270 270 269 270 270 270 269 269
212 221 230 239 246 252 257 261 265 268 272 275 278 281 283 284 285 286 286 285 284 284 284 283 282 281 281 280 280 279 279 280 281 281 280 280 280 280 281 281 282 282 282 283 284 283 283 282 279 278 278 277 276 275 274 272 271 271 270 270 272 272 271 270 270 270 270 270 269
218 227 235 243 249 253 258 261 265 268 272 276 279 282 284 285 286 287 286 284 283 283 283 281 281 281 280 279 279 279 279 280 281 281 281 281 281 281 282 283 283 283 284 285 285 284 283 282 280 278 277 276 277 276 275 274 274 273 272 271 272 272 271 271 270 270 271 270 270
224 231 238 244 250 254 259 263 267 270 274 277 280 283 285 286 287 286 285 283 284 283 281 280 281 281 280 279 279 279 280 280 280 281 283 283 282 283 283 284 284 285 285 286 286 285 285 283 280 277 276 276 276 276 276 275 274 273 273 272 272 273 272 271 271 271 271 271 270
228 235 241 246 250 255 261 265 269 273 276 279 282 285 286 286 286 286 285 285 284 282 282 282 282 282 281 280 280 281 281 281 282 282 283 284 284 284 285 285 285 285 286 286 286 285 284 283 280 278 277 276 276 276 277 276 275 274 274 273 273 273 273 273 272 271 271 271 271
232 238 244 249 254 259 264 268 272 276 279 282 284 286 287 287 287 287 287 286 284 283 284 284 283 282 281 281 281 282 282 283 284 284 284 285 286 286 285 285 285 286 287 286 285 283 282 282 281 279 279 278 277 277 277 277 276 276 275 275 274 274 273 273 273 272 272 272 272
236 243 249 255 260 265 269 273 276 279 282 284 286 288 289 288 289 289 288 285 284 284 285 285 284 282 282 281 282 283 285 286 287 287 287 287 287 287 287 287 287 287 286 286 284 283 282 281 280 280 280 279 278 278 278 278 278 277 277 276 276 275 274 274 274 273 273 273 272
241 248 254 260 265 269 273 276 279 282 284 286 288 289 290 290 290 289 287 284 283 283 284 285 284 283 282 282 284 286 287 289 288 289 289 288 288 288 288 288 288 286 285 285 284 283 282 281 281 280 280 279 279 279 279 278 278 277 277 277 276 276 275 275 275 274 274 274 273
246 253 259 264 269 273 276 279 281 284 285 286 287 288 288 288 289 289 287 284 283 284 285 285 285 284 284 285 288 290 290 289 289 290 290 290 289 288 288 287 287 286 285 285 285 284 282 281 281 281 280 280 280 280 280 279 278 278 277 277 276 276 276 275 275 275 275 274 274
249 256 262 267 271 275 279 282 283 285 286 286 287 287 287 287 289 288 287 286 286 286 286 285 286 287 289 290 291 292 292 291 291 291 292 292 291 290 288 287 286 286 286 285 285 284 283 281 281 281 281 281 281 281 280 280 279 278 277 276 276 276 276 276 276 276 275 275 274
252 258 264 270 274 278 281 283 285 286 286 287 288 288 288 288 288 288 287 286 287 288 288 287 288 290 292 293 294 294 294 294 293 292 292 292 291 290 289 287 286 286 286 286 285 284 284 282 282 281 281 281 281 281 281 280 279 279 278 277 277 277 276 277 276 276 276 275 274
256 263 269 274 278 281 284 285 286 287 288 289 289 290 290 289 289 289 289 290 290 291 291 292 292 293 294 295 295 295 295 294 293 292 291 291 290 289 288 287 286 286 286 285 285 284 284 284 283 283 283 282 282 281 281 280 280 279 279 278 278 278 277 277 277 276 276 275 274
261 268 274 278 282 285 287 288 288 289 289 290 291 291 292 291 292 293 294 295 295 295 295 295 295 295 295 295 295 295 294 293 292 292 291 290 289 288 287 286 286 286 286 285 285 285 284 285 285 284 284 284 283 282 282 281 280 280 280 279 279 278 278 277 276 275 275 274 273
266 273 278 282 285 287 289 290 290 291 292 293 293 293 294 295 296 296 297 297 297 297 297 296 296 296 296 296 295 295 294 293 292 291 290 289 288 287 287 286 286 286 286 286 285 285 285 285 285 285 285 284 284 283 282 282 281 281 280 280 279 278 278 277 276 275 273 272 271
271 276 281 284 287 289 290 292 293 294 295 295 295 296 297 298 298 297 298 299 299 298 298 297 296 296 296 296 295 294 293 293 291 290 290 289 288 287 287 287 287 287 286 286 286 286 286 286 286 286 286 285 284 283 283 282 282 282 281 280 279 278 277 277 275 274 273 272 271
275 280 284 287 289 292 294 296 297 297 297 297 297 298 299 299 299 299 300 301 300 299 297 296 296 296 295 295 294 294 293 292 291 289 289 289 288 287 287 287 287 287 287 286 286 286 286 286 286 286 285 285 284 284 283 283 282 282 281 279 279 278 277 276 275 274 272 271 271
279 283 287 290 293 295 297 298 298 298 298 298 299 300 301 301 301 301 301 301 300 298 297 296 296 295 295 294 293 293 292 292 291 289 288 288 288 287 287 287 287 287 286 286 286 286 286 287 287 286 285 285 285 284 284 283 282 282 281 280 279 279 279 277 276 275 273 272 272
282 286 290 293 296 297 298 298 299 299 299 300 301 302 302 302 302 302 301 300 299 297 296 296 295 295 294 294 292 292 291 291 291 290 289 288 288 288 288 288 287 287 286 286 285 285 285 286 287 287 287 286 285 284 284 284 283 283 283 282 282 281 281 280 279 278 276 275 275
285 289 292 294 297 298 299 299 299 299 300 301 302 303 303 302 302 301 300 299 298 297 296 295 295 295 294 293 292 291 291 290 290 290 290 291 290 290 289 289 289 288 287 286 284 284 284 285 285 286 286 287 286 286 285 285 284 284 284 284 283 283 282 282 281 280 278 277 275
287 291 294 296 298 299 299 299 299 300 301 302 303 302 301 301 301 300 299 298 297 297 296 296 295 295 294 293 293 292 291 291 291 291 291 291 292 291 290 289 288 288 287 286 285 285 285 285 285 285 286 286 287 287 286 286 286 285 284 284 283 283 283 282 282 282 280 278 276
289 293 295 297 299 299 299 300 301 301 302 302 301 300 300 300 300 299 298 297 297 297 297 296 296 295 295 294 293 292 292 292 292 292 291 291 291 291 291 289 288 287 287 286 286 286 287 287 287 286 286 286 286 286 286 286 286 285 284 283 283 282 282 282 282 282 282 281 279
289 293 296 298 300 301 301 301 301 301 301 301 300 299 299 299 298 297 296 296 297 297 297 297 296 296 295 294 293 293 293 293 293 292 292 291 290 290 290 290 289 287 287 287 287 288 288 288 288 288 288 287 287 286 286 286 286 286 285 284 284 283 282 282 283 283 283 282 281
290 294 297 299 300 301 301 301 300 300 299 300 299 298 298 297 296 296 296 297 297 297 297 297 297 296 295 294 294 294 294 294 293 293 292 291 290 290 289 289 289 288 288 288 288 289 289 289 289 289 289 289 288 287 286 286 287 286 286 285 284 283 283 283 282 283 283 282 282
291 295 297 298 300 300 300 299 299 299 299 299 298 297 297 296 296 296 296 297 297 296 296 297 296 295 294 294 294 294 294 294 294 293 292 292 291 290 289 289 289 289 289 290 290 290 290 290 290 290 290 290 289 288 287 286 286 286 285 284 284 283 282 282 282 282 282 281 281
292 296 297 298 298 298 298 297 297 298 298 297 297 296 296 296 296 296 297 297 297 296 296 296 295 294 294 295 295 294 293 294 294 293 292 291 291 291 290 290 290 290 290 291 291 291 291 291 291 291 291 291 290 289 288 287 286 285 284 284 283 283 282 282 282 281 281 280 280
293 296 297 297 296 296 296 297 297 297 297 297 296 296 296 296 295 296 297 297 297 296 297 297 295 295 295 296 296 295 294 294 294 293 292 291 291 291 292 292 292 292 291 292 292 292 292 292 292 291 291 292 291 290 289 287 286 285 284 284 283 282 282 282 281 280 279 278 278
295 296 295 294 294 294 295 296 297 297 297 297 296 296 296 296 295 296 297 298 297 296 296 296 296 296 296 297 296 296 295 294 293 293 292 292 292 293 293 293 293 292 292 292 292 292 292 292 292 292 292 292 292 291 290 288 287 286 285 284 283 282 281 280 279 278 277 277 276
294 294 293 293 293 294 295 297 298 298 298 298 297 297 297 296 296 297 298 298 298 296 296 296 295 295 295 295 295 295 295 295 294 294 294 294 294 294 293 293 292 292 292 292 292 293 293 293 293 293 293 293 293 292 291 289 288 286 285 284 283 282 280 279 278 277 276 275 274
292 292 292 293 294 295 297 298 299 299 299 299 298 298 298 297 296 296 297 298 298 297 296 295 296 296 295 294 294 294 294 295 295 295 295 295 295 294 293 292 291 292 292 292 293 293 293 293 293 293 294 294 294 293 291 289 288 286 284 283 282 281 279 278 277 276 275 274 273
291 292 292 294 296 298 299 300 300 300 300 299 299 299 298 297 297 297 298 298 298 298 297 297 297 297 296 295 295 295 295 295 296 296 295 295 294 294 293 293 292 293 293 293 293 293 293 293 293 294 294 294 294 292 290 289 287 285 284 283 281 280 279 278 277 276 275 274 272
291 292 294 295 297 299 300 301 301 300 299 298 299 299 298 298 298 298 298 299 298 298 298 298 298 297 297 297 296 296 295 295 295 295 295 294 294 293 293 293 293 294 294 294 294 293 293 294 294 294 295 294 293 292 290 288 286 285 283 283 282 281 279 278 278 277 276 274 272
292 294 296 297 298 299 300 300 300 299 298 298 298 298 298 298 298 299 300 299 298 297 298 298 298 297 297 297 297 296 295 295 295 294 294 294 293 293 293 293 293 294 294 294 294 294 294 294 294 294 294 293 292 291 289 287 285 284 283 283 282 281 280 279 278 277 275 273 272
294 296 297 298 299 299 299 299 298 297 297 297 297 298 298 298 297 298 299 298 297 296 297 297 297 297 297 298 297 297 296 296 295 294 293 293 292 292 293 293 293 293 293 294 294 294 294 293 294 294 293 292 291 289 288 286 285 283 283 283 283 282 282 280 278 277 275 273 274
297 298 298 298 298 298 298 297 296 295 296 296 296 297 298 297 297 297 298 297 296 296 297 297 297 297 298 299 298 298 297 296 295 294 293 292 292 293 293 292 292 292 293 293 293 293 293 293 293 293 293 292 290 289 287 285 284 284 283 283 283 283 283 282 280 278 276 275 275
300 300 300 298 297 296 295 295 294 294 295 294 295 295 296 297 298 298 298 297 297 297 297 297 297 297 299 299 298 297 297 296 296 295 294 294 294 293 293 292 291 292 292 292 292 293 293 293 293 293 293 292 290 289 287 286 285 284 284 284 283 283 283 283 283 281 279 277 276